N6OIL Weather Reports


Display with metric or nautical units.
time (UTC)temp
F
wind
direction
speed
MPH
gust
MPH
rain 1hr
in
rain 24hr
in
rain mn
in
humidity
%
barometer
mb
20260509230704 88 311 11.0 17.0 0.00 0.00 0.00 22 1012.3
20260509230204 89 317 10.0 15.0 0.00 0.00 0.00 20 1012.3
20260509225704 89 288 9.0 13.0 0.00 0.00 0.00 18 1012.3
20260509225204 89 325 9.0 13.0 0.00 0.00 0.00 18 1012.4
20260509224704 88 321 9.0 16.0 0.00 0.00 0.00 17 1012.5
20260509223704 88 291 9.0 16.0 0.00 0.00 0.00 17 1012.5
20260509222204 89 296 9.0 16.0 0.00 0.00 0.00 15 1012.6
20260509221704 89 300 8.0 16.0 0.00 0.00 0.00 16 1012.8
20260509220704 88 322 9.0 16.0 0.00 0.00 0.00 15 1013.0
20260509220205 88 314 10.0 15.0 0.00 0.00 0.00 14 1013.0
20260509215704 89 276 10.0 18.0 0.00 0.00 0.00 13 1013.1
20260509215204 89 263 10.0 18.0 0.00 0.00 0.00 13 1013.1
20260509214704 89 283 9.0 17.0 0.00 0.00 0.00 14 1013.1
20260509214204 89 263 10.0 17.0 0.00 0.00 0.00 13 1013.1
20260509213704 89 319 10.0 17.0 0.00 0.00 0.00 14 1013.2
20260509212704 89 267 9.0 14.0 0.00 0.00 0.00 14 1013.4
20260509212204 89 340 7.0 15.0 0.00 0.00 0.00 14 1013.4
20260509211205 89 276 8.0 14.0 0.00 0.00 0.00 12 1013.6
20260509210704 89 311 7.0 14.0 0.00 0.00 0.00 12 1013.5
20260509210204 89 282 6.0 14.0 0.00 0.00 0.00 12 1013.8
20260509205204 89 336 4.0 10.0 0.00 0.00 0.00 8 1013.8
20260509204703 90 229 4.0 10.0 0.00 0.00 0.00 10 1014.0
20260509203704 90 170 3.0 8.0 0.00 0.00 0.00 11 1013.9
20260509202704 89 172 4.0 8.0 0.00 0.00 0.00 12 1014.0
20260509201705 89 28 3.0 8.0 0.00 0.00 0.00 12 1014.1
20260509201204 89 138 3.0 8.0 0.00 0.00 0.00 12 1014.2
20260509200704 89 347 3.0 8.0 0.00 0.00 0.00 12 1014.1
20260509200204 88 102 3.0 8.0 0.00 0.00 0.00 12 1014.2
20260509195704 87 52 4.0 9.0 0.00 0.00 0.00 12 1014.3
20260509195204 87 70 4.0 11.0 0.00 0.00 0.00 12 1014.3
20260509194204 87 83 6.0 12.0 0.00 0.00 0.00 12 1014.5
20260509193704 87 115 5.0 12.0 0.00 0.00 0.00 12 1014.5
20260509193204 87 19 3.0 11.0 0.00 0.00 0.00 12 1014.6
20260509192205 87 88 4.0 11.0 0.00 0.00 0.00 12 1014.7
20260509191705 86 90 4.0 9.0 0.00 0.00 0.00 13 1014.9
20260509190704 85 113 5.0 11.0 0.00 0.00 0.00 13 1015.0
20260509190204 84 125 6.0 11.0 0.00 0.00 0.00 16 1014.9
20260509185704 84 119 5.0 12.0 0.00 0.00 0.00 15 1015.0
20260509185205 84 98 5.0 12.0 0.00 0.00 0.00 14 1015.1
20260509184704 85 103 5.0 12.0 0.00 0.00 0.00 14 1015.1
20260509184205 85 132 3.0 10.0 0.00 0.00 0.00 14 1015.1
20260509183704 85 88 3.0 13.0 0.00 0.00 0.00 15 1015.1
20260509183204 85 65 4.0 13.0 0.00 0.00 0.00 15 1015.1
20260509182704 84 102 4.0 9.0 0.00 0.00 0.00 15 1015.1
20260509181704 83 116 4.0 13.0 0.00 0.00 0.00 15 1015.2
20260509181204 83 148 4.0 13.0 0.00 0.00 0.00 15 1015.2
20260509180704 82 88 4.0 10.0 0.00 0.00 0.00 16 1015.2
20260509175205 82 147 5.0 12.0 0.00 0.00 0.00 16 1015.3
20260509174205 82 82 5.0 12.0 0.00 0.00 0.00 17 1015.3
20260509173704 81 69 6.0 10.0 0.00 0.00 0.00 17 1015.4
20260509173204 81 96 5.0 10.0 0.00 0.00 0.00 17 1015.3
20260509172704 81 95 4.0 11.0 0.00 0.00 0.00 18 1015.3
20260509172204 80 113 6.0 11.0 0.00 0.00 0.00 18 1015.3
20260509171204 80 87 4.0 10.0 0.00 0.00 0.00 18 1015.3
20260509170704 79 99 5.0 11.0 0.00 0.00 0.00 17 1015.3
20260509170205 79 132 5.0 11.0 0.00 0.00 0.00 18 1015.2
20260509165705 80 130 5.0 11.0 0.00 0.00 0.00 18 1015.2
20260509165204 80 96 4.0 9.0 0.00 0.00 0.00 18 1015.2
20260509164704 79 99 5.0 10.0 0.00 0.00 0.00 19 1015.2
20260509164205 79 106 4.0 10.0 0.00 0.00 0.00 18 1015.2
20260509163704 79 105 3.0 8.0 0.00 0.00 0.00 19 1015.2
20260509163204 78 84 3.0 8.0 0.00 0.00 0.00 19 1015.2
20260509162705 78 79 3.0 8.0 0.00 0.00 0.00 20 1015.3
20260509162204 78 96 3.0 8.0 0.00 0.00 0.00 19 1015.3
20260509161704 77 81 3.0 8.0 0.00 0.00 0.00 20 1015.3
20260509161204 77 84 3.0 8.0 0.00 0.00 0.00 20 1015.3
20260509160704 76 65 3.0 8.0 0.00 0.00 0.00 21 1015.4
20260509160204 75 63 4.0 7.0 0.00 0.00 0.00 21 1015.4
20260509155704 75 77 3.0 7.0 0.00 0.00 0.00 20 1015.4
20260509155204 74 60 4.0 7.0 0.00 0.00 0.00 21 1015.4
20260509154705 74 42 4.0 7.0 0.00 0.00 0.00 22 1015.3
20260509154204 74 43 3.0 7.0 0.00 0.00 0.00 23 1015.4
20260509153704 74 49 3.0 7.0 0.00 0.00 0.00 23 1015.5
20260509153204 73 55 3.0 8.0 0.00 0.00 0.00 23 1015.5
20260509152204 73 74 2.0 9.0 0.00 0.00 0.00 23 1015.6
20260509151704 73 78 3.0 9.0 0.00 0.00 0.00 23 1015.5
20260509151204 72 78 4.0 8.0 0.00 0.00 0.00 24 1015.5
20260509150705 72 47 3.0 5.0 0.00 0.00 0.00 24 1015.4
20260509150204 71 8 3.0 4.0 0.00 0.00 0.00 25 1015.5
20260509145705 70 7 3.0 4.0 0.00 0.00 0.00 26 1015.5
20260509145204 70 7 2.0 5.0 0.00 0.00 0.00 26 1015.5
20260509144204 69 7 2.0 5.0 0.00 0.00 0.00 27 1015.5
20260509143704 68 358 2.0 4.0 0.00 0.00 0.00 28 1015.5
20260509143205 67 358 2.0 4.0 0.00 0.00 0.00 28 1015.5
20260509142706 66 358 2.0 4.0 0.00 0.00 0.00 29 1015.5
20260509142204 66 358 3.0 5.0 0.00 0.00 0.00 29 1015.5
20260509141704 65 358 3.0 5.0 0.00 0.00 0.00 29 1015.5
20260509141204 64 358 4.0 5.0 0.00 0.00 0.00 29 1015.4
20260509140704 63 358 4.0 5.0 0.00 0.00 0.00 29 1015.4
20260509140204 63 358 3.0 6.0 0.00 0.00 0.00 30 1015.4
20260509135704 62 358 4.0 6.0 0.00 0.00 0.00 30 1015.4
20260509134704 61 358 4.0 8.0 0.00 0.00 0.00 31 1015.3
20260509134205 60 358 4.0 8.0 0.00 0.00 0.00 31 1015.2
20260509133704 60 358 5.0 8.0 0.00 0.00 0.00 31 1015.3
20260509133204 59 358 5.0 8.0 0.00 0.00 0.00 31 1015.2
20260509132703 58 353 5.0 6.0 0.00 0.00 0.00 32 1015.2
20260509132204 57 353 4.0 6.0 0.00 0.00 0.00 33 1015.1
20260509131704 57 353 4.0 6.0 0.00 0.00 0.00 33 1015.1
20260509131204 56 346 5.0 6.0 0.00 0.00 0.00 33 1015.0
20260509130204 56 345 4.0 5.0 0.00 0.00 0.00 33 1015.0
20260509125704 56 345 4.0 6.0 0.00 0.00 0.00 34 1014.9
20260509125204 56 345 5.0 6.0 0.00 0.00 0.00 34 1014.9
20260509124704 56 345 5.0 6.0 0.00 0.00 0.00 34 1014.9
20260509124205 56 345 4.0 6.0 0.00 0.00 0.00 34 1014.9
20260509123704 56 345 4.0 6.0 0.00 0.00 0.00 34 1014.9
20260509122704 56 345 5.0 6.0 0.00 0.00 0.00 34 1014.6
20260509122205 56 345 5.0 6.0 0.00 0.00 0.00 34 1014.6
20260509121704 57 345 4.0 6.0 0.00 0.00 0.00 34 1014.5
20260509121205 57 345 5.0 6.0 0.00 0.00 0.00 33 1014.5
20260509120705 57 345 5.0 6.0 0.00 0.00 0.00 34 1014.5
20260509120204 57 344 5.0 6.0 0.00 0.00 0.00 34 1014.5
20260509115704 57 344 5.0 6.0 0.00 0.00 0.00 34 1014.5
20260509115205 58 344 4.0 5.0 0.00 0.00 0.00 34 1014.5
20260509114704 58 344 4.0 5.0 0.00 0.00 0.00 34 1014.6
20260509114204 58 344 4.0 5.0 0.00 0.00 0.00 34 1014.5
20260509113204 58 344 4.0 6.0 0.00 0.00 0.00 35 1014.6
20260509112703 57 344 5.0 8.0 0.00 0.00 0.00 35 1014.5
20260509112203 57 344 5.0 8.0 0.00 0.00 0.00 36 1014.6
20260509111704 57 344 5.0 8.0 0.00 0.00 0.00 35 1014.7
20260509110704 57 344 4.0 6.0 0.00 0.00 0.00 36 1014.7
20260509110205 58 344 4.0 6.0 0.00 0.00 0.00 36 1014.7
20260509105706 58 344 4.0 6.0 0.00 0.00 0.00 35 1014.7
20260509105204 58 344 5.0 6.0 0.00 0.00 0.00 35 1014.7
20260509104705 58 344 5.0 8.0 0.00 0.00 0.00 36 1014.7
20260509103704 58 344 5.0 8.0 0.00 0.00 0.00 36 1014.7
20260509103204 58 344 4.0 6.0 0.00 0.00 0.00 36 1014.7
20260509102704 58 343 4.0 6.0 0.00 0.00 0.00 37 1014.9
20260509102204 58 343 4.0 8.0 0.00 0.00 0.00 37 1014.9
20260509100705 58 343 4.0 6.0 0.00 0.00 0.00 39 1014.9
20260509095205 58 343 5.0 8.0 0.00 0.00 0.00 41 1015.0
20260509094204 59 344 4.0 6.0 0.00 0.00 0.00 41 1015.0
20260509093204 59 346 5.0 8.0 0.00 0.00 0.00 42 1015.0
20260509092704 59 346 5.0 8.0 0.00 0.00 0.00 42 1015.1
20260509092204 59 346 5.0 8.0 0.00 0.00 0.00 43 1015.1
20260509091705 58 346 5.0 8.0 0.00 0.00 0.00 44 1015.1
20260509090704 59 344 4.0 6.0 0.00 0.00 0.00 45 1015.1
20260509090204 59 344 4.0 6.0 0.00 0.00 0.00 45 1015.1
20260509085204 60 344 4.0 8.0 0.00 0.00 0.00 46 1015.2
20260509084704 60 344 4.0 8.0 0.00 0.00 0.00 46 1015.3
20260509084204 60 344 5.0 9.0 0.00 0.00 0.00 46 1015.3
20260509083706 61 344 5.0 9.0 0.00 0.00 0.00 46 1015.4
20260509083204 60 345 4.0 9.0 0.00 0.00 0.00 46 1015.4
20260509082704 61 345 4.0 6.0 0.00 0.00 0.00 46 1015.4
20260509082204 61 346 4.0 6.0 0.00 0.00 0.00 45 1015.4
20260509081704 61 346 4.0 6.0 0.00 0.00 0.00 45 1015.4
20260509081204 61 346 4.0 8.0 0.00 0.00 0.00 45 1015.5
20260509075704 61 344 5.0 9.0 0.00 0.00 0.00 47 1015.6
20260509075204 61 340 5.0 9.0 0.00 0.00 0.00 47 1015.6
20260509074704 61 339 5.0 9.0 0.00 0.00 0.00 47 1015.6
20260509073704 61 334 6.0 9.0 0.00 0.00 0.00 48 1015.7
20260509073204 61 332 6.0 9.0 0.00 0.00 0.00 49 1015.7
20260509072704 61 331 6.0 9.0 0.00 0.00 0.00 49 1015.7
20260509072205 62 338 5.0 6.0 0.00 0.00 0.00 49 1015.7
20260509071204 62 344 4.0 5.0 0.00 0.00 0.00 47 1015.7
20260509070204 62 345 4.0 5.0 0.00 0.00 0.00 48 1015.7
20260509065704 62 345 4.0 4.0 0.00 0.00 0.00 49 1015.7
20260509064704 63 345 3.0 5.0 0.00 0.00 0.00 50 1015.6
20260509064204 63 345 3.0 5.0 0.00 0.00 0.00 49 1015.7
20260509063704 64 345 3.0 5.0 0.00 0.00 0.00 48 1015.9
20260509063204 64 345 2.0 4.0 0.00 0.00 0.00 48 1015.9
20260509062704 64 345 2.0 6.0 0.00 0.00 0.00 48 1015.9
20260509061705 65 345 4.0 6.0 0.00 0.00 0.00 48 1015.9
20260509061204 65 344 4.0 9.0 0.00 0.00 0.00 48 1015.9
20260509060705 65 340 5.0 9.0 0.00 0.00 0.00 46 1015.9
20260509060204 66 332 6.0 10.0 0.00 0.00 0.00 44 1015.9
20260509055204 66 340 7.0 10.0 0.00 0.00 0.00 43 1015.7
20260509054704 66 331 6.0 9.0 0.00 0.00 0.00 43 1015.7
20260509054204 66 339 5.0 9.0 0.00 0.00 0.00 42 1015.9
20260509053704 67 340 5.0 9.0 0.00 0.00 0.00 42 1016.0
20260509053204 67 339 5.0 9.0 0.00 0.00 0.00 42 1016.0
20260509052704 67 336 5.0 9.0 0.00 0.00 0.00 42 1016.0
20260509052204 67 330 5.0 9.0 0.00 0.00 0.00 41 1016.0
20260509050704 67 329 6.0 11.0 0.00 0.00 0.00 44 1016.0
20260509050204 67 321 6.0 11.0 0.00 0.00 0.00 46 1016.0
20260509045704 67 319 8.0 12.0 0.00 0.00 0.00 47 1015.9
20260509045204 67 315 9.0 12.0 0.00 0.00 0.00 48 1015.9
20260509044704 67 323 8.0 12.0 0.00 0.00 0.00 48 1015.9
20260509044204 67 331 7.0 11.0 0.00 0.00 0.00 49 1015.9
20260509043704 67 327 7.0 13.0 0.00 0.00 0.00 48 1015.9
20260509043204 67 348 7.0 13.0 0.00 0.00 0.00 48 1015.9
20260509042205 68 331 9.0 13.0 0.00 0.00 0.00 47 1015.7
20260509041705 68 319 9.0 13.0 0.00 0.00 0.00 47 1015.7
20260509041204 68 320 10.0 13.0 0.00 0.00 0.00 46 1015.6
20260509040704 69 330 9.0 14.0 0.00 0.00 0.00 45 1015.6
20260509040204 69 317 9.0 15.0 0.00 0.00 0.00 44 1015.5
20260509035704 69 325 10.0 15.0 0.00 0.00 0.00 43 1015.4
20260509035204 69 326 10.0 15.0 0.00 0.00 0.00 42 1015.4
20260509034704 69 331 10.0 15.0 0.00 0.00 0.00 41 1015.4
20260509033704 70 329 9.0 13.0 0.00 0.00 0.00 40 1015.3
20260509032705 70 327 9.0 14.0 0.00 0.00 0.00 40 1015.2
20260509031704 71 316 8.0 11.0 0.00 0.00 0.00 41 1015.2
20260509031204 71 330 7.0 11.0 0.00 0.00 0.00 41 1015.1
20260509030704 72 313 7.0 12.0 0.00 0.00 0.00 41 1015.1
20260509030204 73 317 7.0 12.0 0.00 0.00 0.00 39 1015.0
20260509025704 74 325 6.0 10.0 0.00 0.00 0.00 38 1015.0
20260509025205 76 326 5.0 10.0 0.00 0.00 0.00 36 1015.0
20260509024704 76 358 4.0 9.0 0.00 0.00 0.00 36 1014.9
20260509024204 77 358 4.0 9.0 0.00 0.00 0.00 35 1014.7
20260509023204 77 358 4.0 12.0 0.00 0.00 0.00 34 1014.6
20260509022704 77 358 5.0 12.0 0.00 0.00 0.00 34 1014.5
20260509022204 78 358 5.0 12.0 0.00 0.00 0.00 35 1014.5
20260509021704 78 63 5.0 10.0 0.00 0.00 0.00 35 1014.4
20260509021204 78 67 5.0 10.0 0.00 0.00 0.00 35 1014.3
20260509020204 79 74 6.0 14.0 0.00 0.00 0.00 35 1014.4
20260509015704 80 45 6.0 14.0 0.00 0.00 0.00 35 1014.3
20260509015204 80 30 6.0 11.0 0.00 0.00 0.00 34 1014.2
20260509014704 81 358 5.0 11.0 0.00 0.00 0.00 34 1014.2
20260509014204 81 49 5.0 11.0 0.00 0.00 0.00 32 1014.1
20260509013704 82 52 4.0 11.0 0.00 0.00 0.00 32 1014.1
20260509013204 83 76 4.0 10.0 0.00 0.00 0.00 30 1014.1
20260509012704 83 57 4.0 10.0 0.00 0.00 0.00 29 1014.0
20260509012204 84 76 4.0 10.0 0.00 0.00 0.00 29 1014.0
20260509011704 84 64 4.0 10.0 0.00 0.00 0.00 28 1014.0
20260509010204 84 51 5.0 16.0 0.00 0.00 0.00 29 1014.0
20260509005704 84 99 5.0 16.0 0.00 0.00 0.00 30 1013.9
20260509005204 83 165 5.0 16.0 0.00 0.00 0.00 31 1013.9
20260509004705 84 44 4.0 13.0 0.00 0.00 0.00 28 1014.0
20260509004204 83 46 5.0 13.0 0.00 0.00 0.00 30 1013.9
20260509003704 84 208 7.0 13.0 0.00 0.00 0.00 30 1013.9
20260509003204 84 344 9.0 13.0 0.00 0.00 0.00 30 1013.9
20260509002204 84 336 8.0 17.0 0.00 0.00 0.00 31 1013.8
20260509001704 83 306 10.0 22.0 0.00 0.00 0.00 31 1013.8
20260509001204 84 277 11.0 22.0 0.00 0.00 0.00 31 1013.8
20260509000704 83 316 12.0 22.0 0.00 0.00 0.00 31 1013.8
20260508235704 84 335 12.0 20.0 0.00 0.00 0.00 30 1013.8
20260508235204 84 267 13.0 21.0 0.00 0.00 0.00 30 1013.8
20260508234706 84 307 14.0 21.0 0.00 0.00 0.00 31 1013.8
20260508234204 83 327 14.0 21.0 0.00 0.00 0.00 31 1013.9
20260508233704 84 313 14.0 21.0 0.00 0.00 0.00 30 1013.9
20260508232704 84 313 14.0 22.0 0.00 0.00 0.00 29 1013.8
20260508231204 85 296 14.0 21.0 0.00 0.00 0.00 28 1014.0